Regional Weather Roundup
Issued by NWS

Home | Current Version | Previous Version | Graphics & Text | Print | Product List | Glossary On
Versions: 1 2 3 4 5 6 7 8 9 10 11 12 13 14 15 16 17 18 19 20 21 22 23 24 25 26 27 28 29 30 31 32 33 34 35 36 37 38 39 40 41 42 43 44 45 46 47 48 49 50
000
ASUS43 KMKX 182011
RWRWI

WISCONSIN REGIONAL WEATHER ROUNDUP
NATIONAL WEATHER SERVICE MILWAUKEE/SULLIVAN WI
200 PM CST THU DEC 18 2014

NOTE: "FAIR" INDICATES FEW OR NO CLOUDS BELOW 12,000 FEET WITH NO
SIGNIFICANT WEATHER AND/OR OBSTRUCTIONS TO VISIBILITY.

WIZ001-002-006>008-014>016-023>028-182100-
NORTHWEST WISCONSIN

CITY           SKY/WX    TMP DP  RH WIND       PRES   REMARKS
SUPERIOR ARPT  CLOUDY    27  20  75 S3        30.26F
ASHLAND        CLOUDY    24  18  77 S6        30.27F WCI  17
HAYWARD        CLOUDY    23  17  78 S7        30.23F WCI  15
SIREN          CLOUDY    23  19  84 SW3       30.25F
CUMBERLAND     CLOUDY    23  19  86 SE3       30.23F
RICE LAKE      CLOUDY    23  20  85 CALM      30.26F
CHETEK         CLOUDY    23  20  88 SE5       30.25S WCI  17
LADYSMITH      CLOUDY    24  21  85 S3        30.25F
EAU CLAIRE     CLOUDY    23  18  81 SW3       30.25F
MENOMONIE      CLOUDY    24  19  80 CALM      30.26F
NEW RICHMOND   CLOUDY    22  19  87 CALM      30.26S
OSCEOLA        CLOUDY    24  19  81 S6        30.29S WCI  17
$$

WIZ003>005-009-010-017-018-182100-
NORTH CENTRAL WISCONSIN

CITY           SKY/WX    TMP DP  RH WIND       PRES   REMARKS
MANITOWISH WTR MOSUNNY   24  16  70 CALM      30.20S
ARBOR VITAE    SUNNY     25  17  71 CALM      30.20S
WOODRUFF       SUNNY     25  17  71 CALM      30.20S
RHINELANDER    SUNNY     24  16  71 CALM      30.19F
EAGLE RIVER    SUNNY     25  15  65 CALM      30.18F
LAND O LAKES   SUNNY     25  18  75 CALM      30.20S
PHILLIPS       CLOUDY    21  17  83 S6        30.21F WCI  14
TOMAHAWK       MOSUNNY   23  17  77 CALM      30.21F
MEDFORD        CLOUDY    22  18  85 CALM      30.21F
MERRILL        CLOUDY    24  18  76 W3        30.22F
$$

WIZ029-030-035-036-043>047-182100-
CENTRAL WISCONSIN

CITY           SKY/WX    TMP DP  RH WIND       PRES   REMARKS
WAUSAU         CLOUDY    25  19  78 CALM      30.21F
MOSINEE        CLOUDY    25  21  86 CALM      30.23F
MARSHFIELD     CLOUDY    25  19  78 CALM      30.22F
STEVENS POINT  CLOUDY    24  17  76 CALM      30.23F
WAUPACA        CLOUDY    29  19  68 CALM      30.24F
WAUTOMA        CLOUDY    27  22  81 CALM      30.24F
WISC RAPIDS    CLOUDY    26  19  74 CALM      30.24F
CAMP DOUGLAS   CLOUDY    25  25 100 NW2       30.24F
$$

WIZ011>013-019>022-031-037>040-048>050-182100-
NORTHEAST WISCONSIN

CITY           SKY/WX    TMP DP  RH WIND       PRES   REMARKS
ANTIGO         SUNNY     27  16  64 CALM      30.19F
SHAWANO        SUNNY     32  19  59 CALM      30.23F
OCONTO         SUNNY     29  19  66 N5        30.23F WCI  24
STURGEON BAY   SUNNY     27  18  69 N9        30.24S WCI  17
GREEN BAY      CLOUDY    29  21  72 N8        30.24F WCI  21
MANITOWOC      CLOUDY    29  24  82 NW9       30.23S WCI  20
APPLETON       CLOUDY    27  19  74 N7        30.23F WCI  19
CLINTONVILLE   MOSUNNY   30  19  64 N5        30.23F WCI  25
OSHKOSH        CLOUDY    27  20  75 N7        30.23F WCI  19
$$

WIZ032>034-041-042-053>061-182100-
SOUTHWEST WISCONSIN

CITY           SKY/WX    TMP DP  RH WIND       PRES   REMARKS
LA CROSSE      CLOUDY    26  18  71 CALM      30.26F
SPARTA         CLOUDY    25  20  82 CALM      30.26F
VIROQUA        CLOUDY    23  20  87 CALM      30.21F
BOSCOBEL       CLOUDY    27  17  66 CALM      30.26F
PRAIRIE DU CHI CLOUDY    27  17  65 CALM      30.25F
PLATTEVILLE    CLOUDY    28  20  72 CALM      30.23S
$$

WIZ056-057-062-063-064-067-068-182100-
SOUTH CENTRAL WISCONSIN

CITY           SKY/WX    TMP DP  RH WIND       PRES   REMARKS
REEDSBURG      CLOUDY    25  19  79 NE3       30.23F
BARABOO/DELLS  CLOUDY    25  19  79 CALM      30.23F
LONE ROCK      NOT AVBL
MINERAL POINT  CLOUDY    28  19  69 CALM      30.21S
MADISON        FLURRIES  27  21  78 N5        30.22F WCI  22
MIDDLETON      CLOUDY    28  21  75 NW5       30.22F WCI  23
WATERTOWN      CLOUDY    27  26  96 N3        30.22F
MONROE         CLOUDY    27  19  74 CALM      30.21F
JANESVILLE     CLOUDY    27  19  74 CALM      30.22F
$$

WIZ051-052-058>065-066-070>072-182100-
SOUTHEAST WISCONSIN

CITY           SKY/WX    TMP DP  RH WIND       PRES   REMARKS
MILWAUKEE      CLOUDY    29  22  75 NW8       30.21F WCI  21
WAUKESHA       CLOUDY    25  25 100 W6        30.22F WCI  18
MILWAUKEE/TIMM CLOUDY    27  25  93 NW6       30.23F FOG     WCI  20
RACINE         CLOUDY    29  20  69 NW9       30.23F WCI  20
BURLINGTON     CLOUDY    26  21  82 NW8       30.22S WCI  18
KENOSHA        CLOUDY    28  20  71 W8        30.21F WCI  20
FOND DU LAC    CLOUDY    28  20  71 N9        30.23F WCI  19
SHEBOYGAN      CLOUDY    29  21  72 N9        30.22F WCI  20
WEST BEND      CLOUDY    28  23  80 NW5       30.21S WCI  23
JUNEAU         CLOUDY    27  23  85 N6        30.23S WCI  20
$$

LSZ147-162-182100-
LAKE SUPERIOR

STATION/POSITION TIME  TEMP    WIND        PRES    WAVE
                       AIR SEA DIR/SP/G            HT/PER
                 (UTC) (F)     (DEG/KT/KT) (MB)    (FT/S)
DEVILS ISLAND    2000   29     100/  7/  8 1026.1F
PORT WING        1900   28     100/  3/  8 1025.4F
SAXON HARBOR     1900   29      CALM  /  4 1025.1F
$$

LMZ867-665-643>646-182100-
LAKE MICHIGAN

STATION/POSITION TIME  TEMP    WIND        PRES    WAVE
                       AIR SEA DIR/SP/G            HT/PER
                 (UTC) (F)     (DEG/KT/KT) (MB)    (FT/S)
CHAMBERS ISLAND  1900   29      10/  9/ 12 1024.0F
NORTHPORT PIER   1900   26     350/  8/ 10 1024.0F
SISTER BAY       1913           30/ 11/ 14   N/A
ALGOMA LAKESHORE 1914           30/  7/ 10   N/A
KEWAUNEE LAKESHO 1900   28     340/  7/ 10 1022.8F
SHEBOYGAN LAKESH 2000   29 34  310/ 10/ 12 1024.4F
PORT WASHINGTON  1940   29     340/  5/  8 1024.0F
MILWAUKEE LAKESH 1900   27     300/  8/ 11   N/A
KENOSHA   LAKESH 2000   28     310/  6/  8 1023.4S
$$

TC  - TEMPERATURE IN CELSIUS
VSB - VISIBILITY IN STATUTE MILES
WCI - WIND CHILL INDEX
HX  - HEAT INDEX



USA.gov is the U.S. government's official web portal to all federal, state and local government web resources and services.